TIME,DELAY(SENSOR),PRES,OXYGEN,RAWTEMP,T(OPTODE),TCPHASE,FLUOR,BETA(BETA700),BETA(BETA412),BETA(BETA440),CDOM,C(CSC),ED(ED412.40),ED(ED444.00),ED(ED489.70),ED(ED554.30),LU(LU411.80),LU(LU443.40),LU(LU489.60),LU(LU554.10),COMP,TILTX,TILTY,CHECK
1380945050,5809,819.0900268554688000,45.3189506530761700,660.3231201171875000,4.6173338890075680,54.2161598205566400,53,101,82,78,79,15255,2147752932,2147422939,2148012370,2147875904,2147638985,2147057435,2148262052,2147195465,3073,4,13,19064
1380948646,5805,894.0599975585938000,48.9571609497070300,667.9802856445312000,4.3648929595947270,53.7871208190918000,53,100,84,78,78,15260,2147758034,2147424813,2148015268,2147872566,2147640292,2147052562,2148261787,2147200960,3104,4,13,18599
1380952246,5812,911.0200195312500000,49.1414489746093750,668.1237792968750000,4.3601570129394530,53.7652816772460940,52,100,86,78,78,15258,2147753334,2147425810,2148013814,2147873664,2147637293,2147046884,2148261915,2147195922,59,4,13,12102
1380955846,5805,940.2999877929688000,49.8673095703125000,670.3355712890625000,4.2871108055114750,53.6913490295410160,52,100,84,78,80,15256,2147756973,2147426203,2148011300,2147871680,2147640676,2147056027,2148259803,2147199222,3428,4,13,25226
1380959446,5809,948.2000122070312000,49.7439994812011700,669.7703857421875000,4.3057818412780760,53.7045707702636700,53,97,85,79,79,15259,2147756480,2147424886,2148012178,2147872914,2147639140,2147048338,2148264045,2147196516,68,4,13,4358
1380963046,5811,950.3099975585938000,49.8303985595703100,670.4727172851562000,4.2825808525085450,53.6997108459472660,53,98,84,79,78,15183,2147757897,2147424274,2148014226,2147872667,2147640886,2147055396,2148267035,2147198994,3536,3,13,25241
1380966646,5808,972.8800048828125000,50.9605903625488300,672.8690795898438000,4.2033710479736330,53.5738296508789060,52,101,85,80,77,15255,2147759908,2147423725,2148011821,2147874057,2147641289,2147054765,2148259739,2147196013,91,4,13,15422
1380970246,5810,974.9199829101562000,50.3834190368652340,673.3997802734375000,4.1858220100402830,53.6597518920898440,53,98,84,78,78,15257,2147755172,2147429165,2148012480,2147872786,2147641024,2147052772,2148265014,2147197056,114,4,13,25060
1380973846,5810,975.7899780273438000,51.2050895690918000,674.0040283203125000,4.1658401489257810,53.5565490722656250,53,97,85,79,79,15257,2147757586,2147427181,2148012955,2147876717,2147639780,2147049819,2148266925,2147196123,57,4,13,58797
1380977446,5809,975.2399902343750000,51.5172615051269500,674.3378295898438000,4.1547989845275880,53.5205307006835940,52,98,84,79,78,15247,2147757869,2147425289,2148012818,2147877421,2147639771,2147052205,2148262811,2147196909,3420,4,13,2524
1380981046,5809,982.1799926757812000,51.4780082702636700,674.3043823242188000,4.1559009552001950,53.5245780944824200,52,98,81,79,78,15255,2147758966,2147424246,2148012736,2147874843,2147639908,2147051785,2148262738,2147198710,534,4,13,52215
1380984646,5809,974.2000122070312000,51.5862884521484400,674.9014282226562000,4.1361498832702640,53.5173492431640600,52,98,85,78,78,15252,2147755739,2147426724,2148012827,2147871616,2147642148,2147045723,2148264850,2147200859,3568,4,13,18875
1380988246,5809,975.7100219726562000,51.0083694458007800,675.3475952148438000,4.1213841438293460,53.5990295410156250,52,98,82,78,79,15254,2147757430,2147427446,2148013376,2147875693,2147644681,2147049801,2148264740,2147197595,3,4,13,14112
1380991846,5808,976.4199829101562000,51.4301910400390600,674.8037109375000000,4.1393809318542480,53.5356788635253900,53,209,83,79,80,15253,2147754724,2147424877,2148013394,2147872969,2147640932,2147048338,2148262244,2147197851,3544,4,13,2985
1380995446,5811,980.1500244140625000,51.5167808532714840,674.9760131835938000,4.1336798667907715,53.5254096984863300,53,100,85,80,78,15250,2147756873,2147424320,2148014491,2147875885,2147641499,2147047945,2148259254,2147198336,386,4,13,50398
1380999046,5810,980.6199951171875000,50.5540809631347660,674.2011718750000000,4.1593170166015625,53.6463088989257800,52,97,84,78,79,15249,2147756022,2147428443,2148013531,2147875766,2147642166,2147050075,2148266194,2147198564,5,4,13,35358
1381002646,5807,986.2999877929688000,51.1419410705566400,673.4641113281250000,4.1836972236633300,53.5584182739257800,52,97,83,78,80,15255,2147756077,2147427364,2148011766,2147875392,2147641133,2147046253,2148265106,2147194989,3543,4,13,13870
1381006246,5813,990.3699951171875000,50.4888610839843750,672.8540039062500000,4.2038731575012210,53.6406097412109400,51,98,84,77,78,15253,2147755538,2147425536,2148013092,2147875026,2147644370,2147048640,2148263131,2147194633,98,4,13,27622
1381009846,5811,991.1500244140625000,50.5678787231445300,672.8250122070312000,4.2048339843750000,53.6264190673828100,52,102,83,79,79,15252,2147755501,2147426678,2148013129,2147874944,2147640795,2147049197,2148264457,2147197284,3585,4,13,20785
1381013446,5810,988.7000122070312000,50.2314300537109400,672.8583984375000000,4.2037281990051270,53.6775016784668000,51,97,88,78,79,15253,2147756123,2147425974,2148013229,2147875794,2147643913,2147054125,2148263734,2147196745,3457,4,13,63666
1381017046,5810,986.8400268554688000,50.7048606872558600,673.7504272460938000,4.1742272377014160,53.6182594299316400,52,97,82,78,79,15249,2147757376,2147423725,2148013430,2147875602,2147639789,2147051949,2148264704,2147193828,559,4,13,40186
1381020646,5808,985.0399780273438000,51.3853797912597660,674.4664916992188000,4.1505389213562010,53.5359992980957000,52,98,84,77,77,15251,2147755958,2147425993,2148009051,2147874166,2147644434,2147056859,2148262884,2147197824,3298,4,13,62420
1381024246,5808,982.1400146484375000,51.5197982788085940,674.6132812500000000,4.1456809043884280,53.5176811218261700,53,97,87,80,78,15250,2147752256,2147423259,2148014171,2147874294,2147641014,2147050240,2148266450,2147196763,689,4,13,55229
1381027846,5809,978.2000122070312000,51.1058006286621100,675.4359130859375000,4.1184620857238770,53.5845985412597660,52,100,82,79,79,15253,2147752585,2147427913,2148012224,2147875520,2147640594,2147046299,2148268233,2147195501,900,4,13,13485
1381031446,5809,979.4899902343750000,51.9407196044921900,676.2827758789062000,4.0904288291931150,53.4833602905273440,52,99,83,78,77,15253,2147759387,2147428032,2148012534,2147872978,2147643922,2147046409,2148264018,2147200786,3469,4,13,64955
1381035046,5811,980.7299804687500000,51.0900382995605500,675.8820190429688000,4.1036949157714840,53.5938682556152340,51,97,83,79,80,15252,2147759414,2147425600,2148010742,2147870619,2147641609,2147052461,2148265124,2147195401,38,4,13,35748
1381038646,5808,982.1300048828125000,51.5135307312011700,675.6414184570312000,4.1116619110107420,53.5362892150878900,52,97,83,79,79,15252,2147759049,2147426029,2148010532,2147869156,2147645037,2147052041,2148265316,2147197174,3490,4,13,59718
1381042246,5809,989.0100097656250000,51.3161697387695300,674.8723754882812000,4.1371102333068850,53.5498809814453100,52,98,85,78,78,15250,2147755529,2147427812,2148011337,2147871771,2147640493,2147049974,2148265362,2147193874,3488,3,13,52978
1381045846,5810,989.0300292968750000,51.0731201171875000,675.2061767578125000,4.1260619163513180,53.5851097106933600,51,96,82,79,78,15250,2147755145,2147427126,2148013750,2147873984,2147638848,2147049819,2148267163,2147195474,3283,4,13,43430
1381049446,5807,986.1500244140625000,51.3880805969238300,674.6843261718750000,4.1433329582214355,53.5405998229980500,52,97,84,78,78,15250,2147755739,2147426468,2148010340,2147874907,2147641115,2147050633,2148263579,2147195264,3353,4,13,5836
1381053046,5810,988.4500122070312000,51.2301788330078100,674.5103759765625000,4.1490859985351560,53.5572204589843750,52,97,83,79,78,15251,2147753883,2147425691,2148015579,2147873645,2147642669,2147051812,2148263552,2147199954,2885,4,13,5184
1381056646,5811,989.2800292968750000,51.4828186035156250,674.3171997070312000,4.1554789543151855,53.5256881713867200,53,98,86,78,78,15247,2147757568,2147428105,2148013997,2147874962,2147641490,2147050587,2148267309,2147198162,259,4,13,61735
1381060246,5809,998.1199951171875000,50.9788208007812500,673.5034790039062000,4.1823940277099610,53.5833396911621100,52,100,88,78,79,15247,2147756708,2147426971,2148011757,2147874313,2147643648,2147056630,2148260068,2147198189,167,4,13,50310
1381063846,5808,982.1099853515625000,51.0783882141113300,675.1251831054688000,4.1287422180175780,53.5839500427246100,52,97,86,79,79,15253,2147757001,2147426121,2148009508,2147872091,2147645696,2147053056,2148268406,2147197531,3574,4,13,20778
1381067446,5804,993.6900024414062000,51.6186408996582000,675.3291015625000000,4.1219959259033200,53.5158882141113300,53,99,86,78,79,15200,2147757421,2147422774,2148011200,2147873929,2147642240,2147050349,2148266934,2147200804,2578,4,13,60522
1381071046,5809,986.9500122070312000,51.0454216003418000,675.3632202148438000,4.1208667755126950,53.5925483703613300,52,102,84,78,79,15204,2147753974,2147425152,2148015433,2147871021,2147644617,2147049426,2148260333,2147197001,3591,4,13,9796
1381074646,5808,985.5900268554688000,51.0647888183593750,676.1452026367188000,4.0949821472167970,53.5999603271484400,53,96,84,77,79,15201,2147754907,2147423597,2148011126,2147873334,2147642368,2147052653,2148261257,2147196525,3565,4,13,62936
1381078246,5809,986.9500122070312000,51.1714210510253900,676.1765747070312000,4.0939431190490720,53.5868682861328100,52,97,83,79,78,15202,2147756598,2147429330,2148011776,2147871716,2147639835,2147057106,2148266432,2147198016,3020,4,13,18968
1381081846,5810,990.6300048828125000,51.5748596191406250,675.4699096679688000,4.1173357963562010,53.5245094299316400,52,97,86,78,77,15200,2147755264,2147425225,2148009197,2147876361,2147644013,2147054198,2148266349,2147201728,3013,4,13,8903
1381085446,5810,992.0100097656250000,51.2980308532714840,675.2512207031250000,4.1245732307434080,53.5580291748046900,53,98,88,78,79,15202,2147758436,2147425060,2148009691,2147875776,2147643410,2147053824,2148264694,2147199277,3306,4,13,54736
1381089046,5812,995.3800048828125000,51.3518791198730500,674.5911254882812000,4.1464161872863770,53.5406684875488300,52,97,84,79,79,15198,2147754788,2147427346,2148011812,2147873170,2147644982,2147058267,2148265728,2147196507,3038,4,13,33602
1381089356,5811,995.3900146484375000,51.4664001464843750,674.5385742187500000,4.1481528282165530,53.5275802612304700,52,97,86,77,78,15259,2147758610,2147423232,2148011904,2147873828,2147643099,2147056768,2148268937,2147196626,2966,3,13,24322
